This is the latest recevied weather packets stored in our database for station/object SP2WPY-13. If no packets are shown the sender has not sent any weather packets the latest 10 day(s).
| Time | Temp. | Humidity | Pressure | Rain* | Wind** | Luminosity | Snow |
|---|---|---|---|---|---|---|---|
| 1787659513 | 23.89° C | 45% | 1024.3 hPa | - | - | - | - |
| 1787659238 | 23.33° C | 49% | 1024.3 hPa | - | - | - | - |
| 1787658917 | 23.33° C | 47% | 1024.4 hPa | - | - | - | - |
| 1787658642 | 23.89° C | 44% | 1024.3 hPa | - | - | - | - |
| 1787658321 | 23.89° C | 46% | 1024.4 hPa | - | - | - | - |
| 1787658001 | 23.89° C | 44% | 1024.4 hPa | - | - | - | - |
| 1787657728 | 23.89° C | 48% | 1024.4 hPa | - | - | - | - |
| 1787657408 | 23.89° C | 47% | 1024.4 hPa | - | - | - | - |
| 1787657133 | 23.89° C | 49% | 1024.4 hPa | - | - | - | - |
| 1787656814 | 23.89° C | 51% | 1024.4 hPa | - | - | - | - |
| 1787656540 | 23.89° C | 53% | 1024.4 hPa | - | - | - | - |
| 1787656220 | 23.89° C | 50% | 1024.4 hPa | - | - | - | - |
| 1787655901 | 23.89° C | 48% | 1024.4 hPa | - | - | - | - |
| 1787655626 | 23.33° C | 47% | 1024.3 hPa | - | - | - | - |
| 1787655304 | 23.33° C | 46% | 1024.4 hPa | - | - | - | - |
| 1787655029 | 23.33° C | 49% | 1024.4 hPa | - | - | - | - |
| 1787654710 | 23.33° C | 48% | 1024.4 hPa | - | - | - | - |
| 1787654434 | 23.89° C | 47% | 1024.4 hPa | - | - | - | - |
| 1787654114 | 23.89° C | 45% | 1024.4 hPa | - | - | - | - |
| 1787653839 | 24.44° C | 41% | 1024.3 hPa | - | - | - | - |
| 1787653521 | 25° C | 41% | 1024.3 hPa | - | - | - | - |
| 1787653200 | 25° C | 40% | 1024.4 hPa | - | - | - | - |
| 1787652925 | 24.44° C | 41% | 1024.5 hPa | - | - | - | - |
| 1787652604 | 24.44° C | 42% | 1024.5 hPa | - | - | - | - |
| 1787652329 | 24.44° C | 42% | 1024.5 hPa | - | - | - | - |
* Rain since midnight (hover to see other rain measurements)
** Current wind speed in m/s (hover to see current wind gust speed)